SCP
0 0 0 0 0 0 0 0 0 0 0 0 0 0 0 0 0 0 0 0 0 0 0 0 0 0 1 1 1 0 0 1 0 0 0 1 1 1 1 1 1 0 1 1
0 0 0 0 0 0 0 0 0 0 0 0 0 0 0 0 0 0 0 0 0 0 0 0 0 0 0 1 1 1 1 0 0 0 1 1 1 1 1 1 1 1 1 1
0 0 0 0 0 0 0 0 0 0 0 0 0 0 0 0 0 0 0 0 0 0 0 0 0 0 0 1 1 1 1 1 1 1 1 1 1 1 1 1 1 1 1 1
0 0 0 0 0 0 0 0 0 0 0 0 0 0 0 0 0 0 0 0 0 0 0 0 0 0 0 0 1 1 1 1 0 0 1 1 1 1 1 1 1 1 0 0
0 0 0 0 0 0 0 0 0 0 0 0 0 0 0 0 0 0 0 0 0 0 0 0 0 0 0 0 0 0 0 0 0 0 1 1 1 1 1 1 1 1 0 0
0 0 0 0 0 0 0 0 0 0 0 0 0 0 0 0 0 0 0 0 0 0 0 0 0 0 0 0 0 0 0 0 0 0 0 1 1 1 1 1 1 1 1 0
0 0 0 0 0 0 0 0 0 0 0 0 0 0 0 0 0 0 0 0 0 0 0 0 0 0 0 0 0 0 0 0 0 0 0 0 0 1 1 1 1 1 1 1
0 0 0 0 0 0 0 0 0 0 0 0 0 0 0 0 0 0 0 0 0 0 0 0 0 0 0 0 0 0 0 0 0 0 0 0 0 1 1 1 1 1 1 1
0 0 0 0 0 0 0 0 0 0 0 0 0 0 0 0 0 0 0 0 0 0 0 0 0 0 0 0 0 0 0 0 0 0 0 0 0 0 0 1 1 1 1 1
0 0 0 0 0 0 0 0 0 0 0 0 0 0 0 0 0 0 0 0 0 0 0 0 0 0 0 0 0 0 0 0 0 0 0 0 0 0 0 0 0 0 0 0
0 0 0 0 0 0 0 0 0 0 0 0 0 0 0 0 0 0 0 0 0 0 0 0 0 0 0 0 0 0 0 0 0 0 0 0 0 0 0 0 0 0 0 0
0 0 0 0 0 0 0 0 0 0 0 0 0 0 0 0 0 0 0 0 0 0 0 0 0 0 0 0 0 0 0 0 0 0 0 0 0 0 0 0 0 0 0 0
0 0 0 0 0 0 0 0 0 0 0 0 0 0 0 0 0 0 0 0 0 0 0 0 0 0 0 0 0 0 0 0 0 0 0 0 0 0 0 0 0 0 0 0
0 0 0 0 0 0 0 0 0 0 0 0 0 0 0 0 0 0 0 0 0 0 0 0 0 0 0 0 0 0 0 0 0 0 0 0 0 0 0 0 0 0 0 0
0 0 0 0 0 0 0 0 0 0 0 0 0 0 0 0 0 0 0 0 0 0 0 0 0 0 0 0 0 0 0 0 0 0 0 0 0 0 0 0 0 0 0 0
0 0 0 0 0 0 0 0 0 0 0 0 0 0 0 0 0 0 0 0 0 0 0 0 0 0 0 0 0 0 0 0 0 0 0 0 0 0 0 0 0 0 0 0
0 0 0 0 0 0 0 0 0 0 0 0 0 0 0 0 0 0 0 0 0 0 0 0 0 0 0 0 0 0 0 0 0 0 0 0 0 0 0 0 0 0 0 0
0 0 0 0 0 0 0 0 0 0 0 0 0 0 0 0 0 0 0 0 0 0 0 0 0 0 0 0 0 0 0 0 0 0 0 0 0 0 0 0 0 0 0 0
0 0 0 0 0 0 0 0 0 0 0 0 0 0 0 0 0 0 0 0 0 0 0 0 0 0 0 0 0 0 0 0 0 0 0 0 0 0 0 0 0 0 0 0
0 0 0 0 0 0 0 0 0 0 0 0 0 0 0 0 0 0 0 0 0 0 0 0 0 0 0 0 0 0 0 0 0 0 0 0 0 0 0 0 0 0 0 0
0 0 0 0 0 0 0 0 0 0 0 0 0 0 0 0 0 0 0 0 0 0 0 0 0 0 0 0 0 0 0 0 0 0 0 0 0 0 0 0 0 0 0 0
0 0 0 0 0 0 0 0 0 0 0 0 0 0 0 0 0 0 0 0 0 0 0 0 0 0 0 0 0 0 0 0 0 0 0 0 0 0 0 0 0 0 0 0
0 0 0 0 0 0 0 0 0 0 0 0 0 0 0 0 0 0 0 0 0 0 0 0 0 0 0 0 0 0 0 0 0 0 0 0 0 0 0 0 0 0 0 0
0 0 0 0 0 0 0 0 0 0 0 0 0 0 0 0 0 0 0 0 0 0 0 0 0 0 0 0 0 0 0 0 0 0 0 0 0 0 0 0 0 0 0 0
0 0 0 0 0 0 0 0 0 0 0 0 0 0 0 0 0 0 0 0 0 0 0 0 0 0 0 0 0 0 0 0 0 0 0 0 0 0 0 0 0 0 0 0
0 0 0 0 0 0 0 0 0 0 0 0 0 0 0 0 0 0 0 0 0 0 0 0 0 0 0 0 0 0 0 0 0 0 0 0 0 0 0 0 0 0 0 0
Wind_Speed
1 3 6 7 7 4 4 6 7 5 2 5 9 11 9 7 6 7 6 5 5 4 2 1 0 1 1 1 2 2 2 3 2 2 2 2 1 1 0 0 0 0 0 0
3 6 5 3 5 5 5 6 7 4 2 4 7 11 10 8 8 7 7 6 5 4 2 1 1 1 1 1 1 2 2 3 3 2 2 1 1 1 1 0 0 1 1 1
5 2 3 4 5 7 8 9 7 5 4 4 7 9 8 5 5 5 5 6 5 5 4 3 2 2 1 1 1 1 2 2 2 2 2 1 1 1 0 1 1 1 1 1
3 2 3 5 5 6 7 5 6 5 4 3 3 7 6 5 5 5 5 5 5 5 5 4 3 2 2 1 1 1 1 1 2 2 2 3 2 2 2 1 1 1 1 1
3 2 3 6 5 5 4 2 4 4 5 5 5 7 6 3 5 5 5 5 5 5 4 4 3 2 2 1 1 1 1 1 1 1 2 2 2 1 1 1 1 1 1 1
1 1 2 2 2 3 3 2 2 3 4 7 6 8 7 4 5 4 4 5 4 4 3 3 2 2 1 1 1 1 1 0 0 1 1 2 2 1 1 1 1 1 1 1
2 2 1 1 2 3 3 4 3 4 5 6 3 7 8 2 3 4 4 4 3 3 3 2 2 2 1 1 1 1 1 1 0 1 1 2 2 2 2 2 2 2 1 2
3 4 3 2 3 5 6 6 5 5 5 3 4 9 5 0 1 2 3 3 2 2 2 2 2 2 2 1 1 1 1 1 1 1 1 1 2 1 2 2 2 2 2 2
4 3 0 1 2 3 5 5 2 1 1 4 6 6 5 1 1 1 2 2 2 2 1 1 1 1 1 1 1 1 1 1 1 1 1 1 1 1 2 2 2 2 2 2
2 3 1 1 1 1 3 4 3 4 4 6 6 7 5 2 2 1 2 3 2 1 1 1 1 1 0 0 1 1 1 1 1 1 1 1 1 2 2 2 2 2 2 2
2 3 1 2 5 5 4 5 4 3 3 5 5 4 0 2 2 2 3 2 2 2 1 1 1 1 0 0 0 0 0 0 0 1 1 1 1 2 2 2 2 2 2 3
2 2 3 4 1 3 4 5 6 5 5 5 5 5 3 0 1 2 2 1 1 1 1 1 0 0 0 0 0 0 1 1 1 1 1 1 1 2 2 2 2 2 3 3
4 3 2 2 2 2 4 4 4 2 2 5 7 6 3 1 1 1 1 1 1 1 0 0 0 0 0 1 1 1 1 1 1 1 1 1 2 2 2 3 3 3 3 3
2 4 6 7 3 3 5 5 5 5 5 7 10 10 6 5 4 4 3 3 2 2 1 1 1 1 1 1 1 1 1 1 1 1 1 1 2 3 3 3 3 3 3 3
2 4 4 6 4 4 6 8 9 11 10 10 10 12 12 8 7 6 4 3 3 3 2 2 2 2 1 1 1 1 1 1 1 1 1 2 2 3 3 3 3 4 4 4
1 2 1 4 2 3 7 10 12 13 13 14 13 15 10 7 5 6 5 4 4 4 3 3 2 2 2 2 2 2 2 1 1 1 2 2 2 3 3 3 4 4 4 4
3 3 3 4 2 2 10 11 12 10 11 11 14 13 6 6 6 6 5 5 5 4 4 3 3 3 3 3 2 2 2 1 1 1 2 2 2 3 3 4 3 4 4 4
5 4 2 2 1 10 5 1 7 10 11 12 11 10 8 8 6 4 4 5 6 5 4 4 3 3 2 2 2 2 1 1 1 1 2 2 3 3 3 4 4 4 4 4
6 6 4 4 6 10 8 4 5 8 10 9 11 11 8 4 3 5 4 5 5 4 3 2 2 1 1 1 1 1 1 1 1 2 2 3 3 3 3 4 4 4 4 5
2 4 4 4 6 9 5 1 2 3 8 5 8 9 6 3 5 4 1 2 2 1 1 1 1 0 1 1 1 1 1 1 2 3 3 3 3 4 4 4 4 4 4 5
4 4 7 7 9 10 4 2 5 6 6 1 5 6 5 6 6 2 0 1 1 1 0 0 0 0 1 1 0 1 1 2 3 3 3 3 3 4 4 4 3 4 4 4
9 7 8 7 8 10 4 7 8 5 2 1 2 3 5 5 3 2 1 1 1 1 0 0 0 1 1 1 0 1 2 3 3 3 3 3 3 3 3 3 3 3 3 3
9 9 7 10 9 2 7 7 5 1 3 3 3 3 4 4 5 4 3 2 2 1 1 0 0 1 1 1 1 2 3 3 3 2 2 3 3 3 3 3 3 3 3 3
6 3 5 7 10 7 7 6 5 4 5 4 4 4 4 5 5 4 3 2 2 1 1 1 0 1 1 1 2 2 2 2 2 2 2 2 2 2 2 2 2 2 2 3
7 7 6 9 8 5 7 9 8 6 5 4 4 4 5 5 5 5 4 3 2 1 1 1 1 1 2 2 2 2 2 2 2 2 2 2 2 2 2 2 3 3 3 4
10 11 10 11 8 7 7 5 6 6 7 6 5 5 4 4 5 4 3 3 2 2 1 1 1 1 2 2 2 2 2 1 1 1 1 1 1 2 2 2 3 4 5 7
Wind_Direction
120 186 205 207 214 238 217 228 248 256 268 257 256 264 264 254 244 247 241 239 237 242 254 240 223 201 181 172 181 191 197 191 176 172 184 193 201 208 216 45 344 294 310 271
163 219 228 207 204 210 218 236 249 259 248 258 271 268 262 247 242 245 241 239 240 244 244 234 228 197 196 191 195 196 201 194 192 195 199 213 207 210 229 239 256 282 301 288
213 215 202 191 195 209 227 236 246 259 282 250 280 266 240 227 228 236 240 240 237 234 234 227 211 212 201 203 210 210 208 201 197 194 174 150 149 158 187 284 293 289 283 280
222 231 201 204 216 218 235 232 241 244 251 252 266 277 251 221 230 229 231 233 235 232 227 219 208 205 205 213 212 210 199 180 180 183 186 181 191 211 241 272 271 286 283 277
212 210 211 221 229 223 222 225 228 236 241 260 232 252 260 213 237 237 234 236 237 232 222 213 207 205 196 192 181 175 159 150 157 185 192 199 212 234 242 255 267 281 281 282
238 236 252 243 240 213 177 175 183 210 227 247 231 234 261 216 236 253 245 240 234 224 215 209 200 190 181 168 144 132 147 132 114 166 190 198 207 217 231 249 258 266 281 286
231 212 201 228 163 171 194 190 213 215 218 237 195 233 253 242 238 253 260 253 242 217 203 197 195 192 187 187 165 157 165 166 183 190 203 214 220 216 221 240 255 261 266 283
206 225 200 222 226 199 203 214 218 236 239 242 206 236 248 272 284 267 272 255 229 206 199 203 206 200 197 201 191 179 188 201 214 218 236 234 233 231 239 251 265 265 277 284
212 224 113 267 289 210 190 212 260 236 323 265 240 248 262 180 236 222 230 219 212 202 191 195 194 190 191 197 202 200 203 209 226 237 244 246 253 253 258 265 269 277 291 296
204 228 256 286 205 245 242 174 177 203 229 247 251 247 243 214 241 229 233 224 207 173 165 175 185 188 184 197 194 187 193 194 223 255 269 273 265 270 272 267 278 289 293 295
204 191 221 209 213 201 175 185 195 200 237 242 257 246 180 225 227 239 241 227 197 182 178 178 165 142 93 62 83 70 47 18 353 324 301 291 287 287 282 288 299 299 298 298
181 188 230 240 278 300 233 209 188 208 222 229 254 262 95 269 298 267 269 242 171 164 153 136 125 103 78 18 3 12 10 348 329 327 330 311 302 297 295 298 300 303 298 297
163 172 214 233 195 207 233 223 220 224 212 216 232 249 109 14 330 291 268 251 214 184 164 136 137 247 284 284 298 312 320 319 323 330 328 320 319 313 310 308 308 307 305 304
165 199 221 241 258 194 224 226 211 198 223 235 240 257 263 280 285 282 273 258 256 262 255 253 269 275 269 268 276 288 302 309 314 312 305 314 319 317 316 313 311 308 305 302
183 228 240 269 283 245 242 235 219 220 230 239 253 257 270 273 273 275 266 251 255 261 263 270 281 293 292 279 277 292 302 311 307 296 301 310 319 317 315 317 318 318 311 304
187 219 235 269 272 277 266 249 233 235 242 247 262 268 272 275 263 264 256 244 247 255 264 272 278 284 286 288 290 294 301 306 302 293 302 316 319 319 315 315 316 317 318 317
180 169 206 257 314 296 260 235 218 225 228 232 247 260 269 259 251 252 251 245 247 253 258 265 267 268 275 284 290 289 291 300 297 299 310 317 314 310 312 314 312 313 312 313
182 175 204 251 210 242 250 147 212 228 241 235 248 264 262 262 262 260 252 249 250 248 251 262 275 284 295 302 306 306 296 291 295 304 309 313 308 306 310 309 309 312 312 307
207 184 188 205 241 267 276 230 199 218 253 238 243 256 265 282 264 254 241 242 242 240 247 264 278 287 306 321 327 305 297 298 300 304 303 305 301 300 302 302 305 310 308 305
178 190 188 199 228 246 259 177 190 198 262 233 228 243 246 200 245 256 200 215 229 240 249 287 323 344 325 340 340 295 296 306 302 301 299 297 294 290 290 293 300 306 303 301
170 193 209 218 239 259 266 150 162 205 260 222 214 228 221 217 245 298 115 184 204 212 229 341 302 264 304 331 338 309 310 303 307 310 309 304 297 293 289 294 303 306 307 307
187 191 204 202 224 248 168 159 200 240 337 263 241 235 231 233 243 245 232 206 181 177 173 150 241 328 356 1 304 300 313 318 322 318 310 302 299 297 297 302 308 313 313 310
210 205 199 205 226 258 172 200 226 249 251 256 257 259 236 235 236 231 224 215 205 194 193 185 233 300 354 5 315 291 314 329 323 317 306 302 308 305 306 299 305 313 315 314
226 212 214 237 249 244 229 239 252 249 247 251 249 245 234 237 235 228 226 216 201 196 195 193 208 259 307 337 330 311 323 331 319 300 302 310 309 309 315 305 297 300 303 309
214 188 215 244 256 266 246 236 243 248 247 253 255 243 235 228 225 223 221 214 209 203 201 205 222 248 283 311 316 326 332 330 309 296 299 304 301 305 304 303 293 295 289 295
208 201 209 234 228 227 246 226 217 226 237 237 235 240 235 219 220 216 218 214 206 205 202 217 241 257 279 294 300 314 319 296 270 273 287 291 297 303 303 309 314 315 316 320